Regional Weather Roundup
Issued by NWS

Home | Current Version | Previous Version | Graphics & Text | Print | Product List | Glossary On
Versions: 1 2 3 4 5 6 7 8 9 10 11 12 13 14 15 16 17 18 19 20 21 22 23 24 25 26 27 28 29 30 31 32 33 34 35 36 37 38 39 40 41 42 43 44 45 46 47 48 49 50
000
ASUS43 KDMX 280403
RWRIA

WEATHER ROUNDUP FOR IOWA
NATIONAL WEATHER SERVICE DES MOINES IA
1100 PM CDT SAT AUG 27 2016

NOTE: "FAIR" INDICATES FEW OR NO CLOUDS BELOW 12,000 FEET WITH NO
SIGNIFICANT WEATHER AND/OR OBSTRUCTIONS TO VISIBILITY.

* - THESE STATIONS ARE NOT NWS STATIONS...THUS NOT UNDER NWS
QUALITY CONTROL.  THEY ALSO DO NOT REPORT WEATHER SUCH
AS PRECIPITATION OR FOG.

IAZ001>003-012>014-020>022-031>034-043>046-280500-
   NORTHWEST IOWA

CITY           SKY/WX    TMP DP  RH WIND       PRES   REMARKS
CARROLL *      PTCLDY    66  64  94 S5        30.07S
CHEROKEE *     CLEAR     64  63  99 CALM      30.06R
DENISON *        N/A     66  64  94 SE5       30.05R
LE MARS *      CLEAR     66  64  94 CALM      30.05R
ORANGE CITY *  CLEAR     66  64  94 E3        30.06R
SHELDON *      CLEAR     61  61 100 E6        30.05R FOG
SIOUX CITY     CLEAR     68  64  87 E5        30.04R
SPENCER        CLEAR     60  58  92 E3        30.07R FOG
STORM LAKE *   CLEAR     64  63  94 S7        30.07S
$$

IAZ055>058-069>071-079>083-090>094-280500-
   SOUTHWEST IOWA

CITY           SKY/WX    TMP DP  RH WIND       PRES   REMARKS
ATLANTIC *     CLEAR     64  64 100 N3        30.07S
AUDUBON *      CLEAR     63  61  94 CALM      30.09R
CLARINDA *       N/A     66  66 100 MISG      30.08R FOG
COUNCIL BLFS * CLEAR     72  68  88 SE5       30.06S
CRESTON *      CLEAR     70  66  88 SE3       30.09R
HARLAN  *      CLEAR     63  63 100 CALM      30.10R
LAMONI         PTCLDY    74  69  85 E3        30.07R
RED OAK *      CLEAR     66  66 100 CALM      30.06S
SHENANDOAH *   CLEAR     68 -40   1 NE6       30.06R
$$

IAZ047>049-059>061-072>074-084-280500-
   CENTRAL IOWA

CITY           SKY/WX    TMP DP  RH WIND       PRES   REMARKS
AMES           CLEAR     64  64 100 CALM      30.08R FOG
ANKENY *         N/A    N/A N/A N/A MISG        N/A
BOONE *          N/A     66  66 100 E5        30.08R
CHARITON *       N/A     68  68 100 MISG      30.08R
DES MOINES     MOCLDY    73  69  87 CALM      30.06R
GRINNELL*      PTCLDY    68  65  92 E3        30.09R
KNOXVILLE *    PTCLDY    72  70  94 CALM      30.06S
MARSHALLTOWN   CLEAR     65  65 100 CALM      30.08R
NEWTON *       CLEAR     70  70 100 E6        30.07R
PELLA *        PTCLDY    71  69  93 CALM      30.08S
PERRY *          N/A     66  66  99 E3        30.08R FOG
$$

IAZ004>006-015-016-023>025-035-036-280500-
   NORTH CENTRAL IOWA

CITY           SKY/WX    TMP DP  RH WIND       PRES   REMARKS
ALGONA *       CLOUDY    66  64  94 S3        30.08R
ESTHERVILLE    CLEAR     59  59 100 E3        30.08R FOG
FORT DODGE *   CLEAR     66  63  88 CALM      30.08S
MASON CITY     CLEAR     63  62  97 S3        30.10R FOG
FOREST CITY *    N/A    N/A N/A N/A MISG        N/A
WEBSTER CITY * CLEAR     63  63 100 SE6       30.06S
IOWA FALLS *   MOCLDY    67  65  94 S6        30.09S
$$

IAZ007>011-017>019-026>030-037>042-050>054-066-280500-
   NORTHEAST IOWA

CITY           SKY/WX    TMP DP  RH WIND       PRES   REMARKS
CEDAR RAPIDS   PTCLDY    70  69  97 N3        30.08R
CHARLES CITY * CLEAR     64  64 100 SE3       30.10R
CLINTON *      CLOUDY    70  69  97 NE5       30.09R
DECORAH *      CLOUDY    64  64 100 CALM      30.10R FOG
DUBUQUE        CLEAR     66  65  96 NE3       30.10R
MONTICELLO *   CLEAR     66  66 100 CALM      30.08S FOG
OELWEIN *      CLEAR     64  64 100 SE5       30.10R
WATERLOO       CLEAR     64  63  96 CALM      30.08R
$$

IAZ064-065-067-068-078-280500-
   EAST CENTRAL IOWA

CITY           SKY/WX    TMP DP  RH WIND       PRES   REMARKS
DAVENPORT      CLOUDY    74  70  87 SE7       30.10R
IOWA CITY      CLEAR     72  69  90 CALM      30.08S
MT. PLEASANT * PTCLDY    73  73 100 CALM      30.08R
MUSCATINE *    CLEAR     72  70  94 CALM      30.07R
QUAD CITIES    CLOUDY    76  72  87 NE6       30.07R
$$

IAZ062-063-075>077-085>089-095>099-280500-
   SOUTHEAST IOWA

CITY           SKY/WX    TMP DP  RH WIND       PRES   REMARKS
BURLINGTON     CLEAR     73  73 100 CALM      30.07R
FAIRFIELD *    PTCLDY    70  66  88 N6        30.07S
FORT MADISON * PTCLDY    72  72 100 CALM      30.08R
KEOKUK *       CLEAR     75  73  94 CALM      30.06S
OSKALOOSA *      N/A     68  67  94 E6        30.08R
CENTERVILLE *    N/A     68  68 100 CALM      30.09S
OTTUMWA        PTCLDY    69  66  90 CALM      30.07R
WASHINGTON *   CLEAR     72  70  94 NE5       30.08S
$$

ABBREVIATIONS USED IN REMARKS
   TC - TEMPERATURES IN CELSIUS
  WCI - WIND CHILL INDEX
   HX - HEAT INDEX
  VSB - VISIBILITY
$$





USA.gov is the U.S. government's official web portal to all federal, state and local government web resources and services.